| time (UTC) | temp C | wind direction | speed KPH | gust KPH | rain 1hr cm | rain 24hr cm | rain mn cm | humidity % | barometer mb |
| 20260906005527 | 8 | 119 | 6.4 | 9.7 | 0.00 | 0.43 | 0.00 | 88 | 1024.1 |
| 20260906004522 | 8 | 135 | 4.8 | 6.4 | 0.00 | 0.43 | 0.00 | 87 | 1024.1 |
| 20260906003527 | 8 | 121 | 4.8 | 6.4 | 0.00 | 0.43 | 0.00 | 88 | 1024.1 |
| 20260906002532 | 8 | 121 | 4.8 | 6.4 | 0.00 | 0.43 | 0.00 | 87 | 1024.2 |
| 20260906001526 | 8 | 124 | 3.2 | 6.4 | 0.00 | 0.43 | 0.00 | 87 | 1023.9 |
| 20260906000521 | 8 | 120 | 4.8 | 11.3 | 0.00 | 0.43 | 0.00 | 87 | 1023.9 |
| 20260905235516 | 9 | 107 | 4.8 | 6.4 | 0.00 | 0.43 | 0.00 | 87 | 1023.9 |
| 20260905234531 | 9 | 119 | 4.8 | 6.4 | 0.00 | 0.43 | 0.00 | 86 | 1023.7 |
| 20260905233525 | 9 | 106 | 1.6 | 3.2 | 0.00 | 0.43 | 0.00 | 87 | 1023.8 |
| 20260905232519 | 8 | 130 | 3.2 | 6.4 | 0.00 | 0.43 | 0.00 | 86 | 1023.6 |
| 20260905231534 | 8 | 120 | 3.2 | 4.8 | 0.00 | 0.43 | 0.00 | 84 | 1023.6 |
| 20260905230551 | 9 | 129 | 3.2 | 4.8 | 0.00 | 0.43 | 0.00 | 84 | 1023.5 |
| 20260905225523 | 9 | 108 | 1.6 | 3.2 | 0.00 | 0.43 | 0.00 | 84 | 1023.4 |
| 20260905224537 | 9 | 105 | 4.8 | 6.4 | 0.00 | 0.43 | 0.00 | 84 | 1023.4 |
| 20260905223530 | 9 | 130 | 4.8 | 9.7 | 0.00 | 0.43 | 0.00 | 83 | 1023.4 |
| 20260905222544 | 10 | 130 | 3.2 | 4.8 | 0.00 | 0.43 | 0.00 | 82 | 1023.3 |
| 20260905221518 | 10 | 115 | 1.6 | 3.2 | 0.00 | 0.43 | 0.00 | 81 | 1023.3 |
| 20260905220533 | 10 | 123 | 3.2 | 4.8 | 0.00 | 0.43 | 0.00 | 81 | 1023.1 |
| 20260905215527 | 10 | 125 | 1.6 | 3.2 | 0.00 | 0.43 | 0.43 | 79 | 1023.2 |
| 20260905214641 | 10 | 130 | 4.8 | 4.8 | 0.00 | 0.43 | 0.43 | 78 | 1023.1 |
| 20260905213516 | 11 | 107 | 1.6 | 3.2 | 0.00 | 0.43 | 0.43 | 78 | 1023.1 |
| 20260905212530 | 11 | 334 | 1.6 | 3.2 | 0.00 | 0.43 | 0.43 | 78 | 1023.0 |
| 20260905211525 | 11 | 179 | 1.6 | 3.2 | 0.00 | 0.43 | 0.43 | 75 | 1022.9 |
| 20260905210519 | 11 | 160 | 3.2 | 4.8 | 0.00 | 0.43 | 0.43 | 71 | 1022.8 |
| 20260905205533 | 12 | 168 | 3.2 | 4.8 | 0.00 | 0.43 | 0.43 | 68 | 1022.7 |
| 20260905204528 | 13 | 208 | 1.6 | 3.2 | 0.00 | 0.43 | 0.43 | 65 | 1022.7 |
| 20260905203522 | 14 | 267 | 0.0 | 1.6 | 0.00 | 0.43 | 0.43 | 63 | 1022.6 |
| 20260905202517 | 15 | 284 | 3.2 | 4.8 | 0.00 | 0.43 | 0.43 | 61 | 1022.3 |
| 20260905201532 | 15 | 263 | 1.6 | 3.2 | 0.00 | 0.43 | 0.43 | 59 | 1022.2 |
| 20260905200547 | 15 | 265 | 4.8 | 6.4 | 0.00 | 0.43 | 0.43 | 59 | 1022.2 |
| 20260905195521 | 15 | 263 | 4.8 | 6.4 | 0.00 | 0.43 | 0.43 | 58 | 1022.1 |
| 20260905194535 | 16 | 264 | 6.4 | 11.3 | 0.00 | 0.43 | 0.43 | 57 | 1021.9 |
| 20260905193531 | 16 | 255 | 6.4 | 11.3 | 0.00 | 0.43 | 0.43 | 56 | 1021.8 |
| 20260905192525 | 16 | 265 | 8.0 | 12.9 | 0.00 | 0.43 | 0.43 | 55 | 1021.7 |
| 20260905191540 | 16 | 263 | 8.0 | 14.5 | 0.00 | 0.43 | 0.43 | 55 | 1021.7 |
| 20260905190555 | 17 | 265 | 8.0 | 14.5 | 0.00 | 0.43 | 0.43 | 53 | 1021.7 |
| 20260905185529 | 17 | 264 | 8.0 | 12.9 | 0.00 | 0.43 | 0.43 | 53 | 1021.5 |
| 20260905184523 | 17 | 271 | 8.0 | 14.5 | 0.00 | 0.43 | 0.43 | 53 | 1021.4 |
| 20260905183517 | 17 | 268 | 8.0 | 12.9 | 0.00 | 0.43 | 0.43 | 52 | 1021.2 |
| 20260905182552 | 18 | 264 | 11.3 | 16.1 | 0.00 | 0.43 | 0.43 | 50 | 1021.1 |
| 20260905181526 | 18 | 267 | 12.9 | 30.6 | 0.00 | 0.43 | 0.43 | 51 | 1021.0 |
| 20260905180521 | 18 | 269 | 9.7 | 20.9 | 0.00 | 0.43 | 0.43 | 53 | 1020.9 |
| 20260905175535 | 18 | 267 | 6.4 | 12.9 | 0.00 | 0.43 | 0.43 | 51 | 1020.6 |
| 20260905174530 | 19 | 281 | 11.3 | 17.7 | 0.00 | 0.43 | 0.43 | 50 | 1020.5 |
| 20260905173524 | 20 | 276 | 12.9 | 20.9 | 0.00 | 0.43 | 0.43 | 48 | 1020.3 |
| 20260905172519 | 20 | 285 | 12.9 | 25.7 | 0.00 | 0.43 | 0.43 | 47 | 1019.9 |
| 20260905171534 | 21 | 277 | 19.3 | 41.8 | 0.00 | 0.43 | 0.43 | 46 | 1019.9 |
| 20260905170529 | 21 | 282 | 16.1 | 33.8 | 0.00 | 0.43 | 0.43 | 46 | 1019.8 |
| 20260905165524 | 21 | 282 | 16.1 | 33.8 | 0.00 | 0.43 | 0.43 | 43 | 1019.5 |
| 20260905164538 | 21 | 261 | 20.9 | 43.5 | 0.00 | 0.43 | 0.43 | 43 | 1019.2 |
| 20260905163533 | 21 | 273 | 19.3 | 40.2 | 0.00 | 0.43 | 0.43 | 43 | 1019.2 |
| 20260905162528 | 22 | 267 | 24.1 | 46.7 | 0.00 | 0.43 | 0.43 | 41 | 1019.0 |
| 20260905161523 | 22 | 263 | 35.4 | 61.2 | 0.00 | 0.43 | 0.43 | 42 | 1018.7 |
| 20260905160519 | 22 | 270 | 24.1 | 49.9 | 0.00 | 0.43 | 0.43 | 42 | 1018.7 |
| 20260905155533 | 22 | 278 | 22.5 | 38.6 | 0.00 | 0.43 | 0.43 | 44 | 1018.6 |
| 20260905154547 | 22 | 268 | 19.3 | 30.6 | 0.00 | 0.43 | 0.43 | 44 | 1018.7 |
| 20260905153522 | 22 | 267 | 17.7 | 33.8 | 0.00 | 0.43 | 0.43 | 45 | 1018.6 |
| 20260905152617 | 22 | 261 | 12.9 | 20.9 | 0.00 | 0.43 | 0.43 | 47 | 1018.6 |
| 20260905151552 | 22 | 250 | 19.3 | 41.8 | 0.00 | 0.43 | 0.43 | 47 | 1018.5 |
| 20260905150547 | 22 | 264 | 14.5 | 25.7 | 0.00 | 0.43 | 0.43 | 47 | 1018.4 |
| 20260905145522 | 22 | 256 | 14.5 | 27.4 | 0.00 | 0.43 | 0.43 | 47 | 1018.5 |
| 20260905144515 | 22 | 257 | 20.9 | 48.3 | 0.00 | 0.43 | 0.43 | 46 | 1018.6 |
| 20260905143531 | 22 | 256 | 25.7 | 48.3 | 0.00 | 0.43 | 0.43 | 46 | 1018.7 |
| 20260905142526 | 23 | 251 | 19.3 | 38.6 | 0.00 | 0.43 | 0.43 | 47 | 1018.6 |
| 20260905141520 | 23 | 237 | 19.3 | 30.6 | 0.00 | 0.43 | 0.43 | 47 | 1018.5 |
| 20260905140535 | 23 | 252 | 17.7 | 29.0 | 0.00 | 0.43 | 0.43 | 48 | 1018.5 |
| 20260905135550 | 22 | 240 | 20.9 | 41.8 | 0.00 | 0.43 | 0.43 | 48 | 1018.5 |
| 20260905134525 | 22 | 264 | 27.4 | 61.2 | 0.00 | 0.43 | 0.43 | 47 | 1018.5 |
| 20260905133519 | 22 | 258 | 17.7 | 40.2 | 0.00 | 0.43 | 0.43 | 47 | 1018.7 |
| 20260905132533 | 22 | 246 | 16.1 | 37.0 | 0.00 | 0.43 | 0.43 | 47 | 1018.7 |
| 20260905131549 | 22 | 247 | 19.3 | 35.4 | 0.00 | 0.43 | 0.43 | 50 | 1018.7 |
| 20260905130523 | 22 | 251 | 22.5 | 37.0 | 0.00 | 0.43 | 0.43 | 51 | 1018.8 |
| 20260905125538 | 22 | 250 | 20.9 | 35.4 | 0.00 | 0.43 | 0.43 | 51 | 1018.8 |
| 20260905124533 | 22 | 240 | 20.9 | 37.0 | 0.00 | 0.43 | 0.43 | 53 | 1018.7 |
| 20260905123528 | 22 | 237 | 16.1 | 35.4 | 0.00 | 0.43 | 0.43 | 53 | 1018.7 |
| 20260905122542 | 22 | 249 | 20.9 | 38.6 | 0.00 | 0.43 | 0.43 | 53 | 1018.9 |
| 20260905121516 | 21 | 246 | 11.3 | 30.6 | 0.00 | 0.43 | 0.43 | 59 | 1018.9 |
| 20260905120551 | 21 | 247 | 17.7 | 41.8 | 0.00 | 0.43 | 0.43 | 59 | 1019.1 |
| 20260905115526 | 21 | 253 | 14.5 | 22.5 | 0.00 | 0.43 | 0.43 | 60 | 1019.1 |
| 20260905114521 | 21 | 238 | 19.3 | 40.2 | 0.00 | 0.43 | 0.43 | 62 | 1019.3 |
| 20260905113535 | 20 | 242 | 12.9 | 29.0 | 0.00 | 0.43 | 0.43 | 63 | 1019.2 |
| 20260905112530 | 20 | 241 | 14.5 | 33.8 | 0.00 | 0.43 | 0.43 | 62 | 1019.3 |
| 20260905111545 | 20 | 252 | 16.1 | 27.4 | 0.00 | 0.43 | 0.43 | 63 | 1019.3 |
| 20260905110519 | 20 | 253 | 14.5 | 27.4 | 0.00 | 0.43 | 0.43 | 64 | 1019.4 |
| 20260905105534 | 20 | 252 | 12.9 | 25.7 | 0.00 | 0.43 | 0.43 | 64 | 1019.4 |
| 20260905104529 | 19 | 253 | 16.1 | 33.8 | 0.00 | 0.43 | 0.43 | 65 | 1019.5 |
| 20260905103523 | 20 | 253 | 20.9 | 38.6 | 0.00 | 0.43 | 0.43 | 65 | 1019.6 |
| 20260905102618 | 20 | 237 | 19.3 | 37.0 | 0.00 | 0.43 | 0.43 | 65 | 1019.5 |
| 20260905101532 | 20 | 251 | 16.1 | 57.9 | 0.00 | 0.43 | 0.43 | 66 | 1019.4 |
| 20260905100528 | 20 | 228 | 14.5 | 25.7 | 0.00 | 0.43 | 0.43 | 68 | 1019.4 |
| 20260905095521 | 19 | 249 | 16.1 | 29.0 | 0.00 | 0.43 | 0.43 | 67 | 1019.5 |
| 20260905094515 | 19 | 232 | 14.5 | 25.7 | 0.00 | 0.43 | 0.43 | 67 | 1019.6 |
| 20260905093531 | 20 | 242 | 12.9 | 22.5 | 0.00 | 0.43 | 0.43 | 68 | 1019.6 |
| 20260905092526 | 20 | 242 | 14.5 | 29.0 | 0.00 | 0.43 | 0.43 | 67 | 1019.6 |
| 20260905091521 | 19 | 232 | 12.9 | 22.5 | 0.00 | 0.43 | 0.43 | 71 | 1019.6 |
| 20260905090535 | 18 | 244 | 11.3 | 24.1 | 0.00 | 0.43 | 0.43 | 71 | 1019.6 |
| 20260905085529 | 18 | 237 | 12.9 | 20.9 | 0.00 | 0.43 | 0.43 | 74 | 1019.5 |
| 20260905084523 | 18 | 254 | 11.3 | 20.9 | 0.00 | 0.43 | 0.43 | 74 | 1019.4 |
| 20260905083538 | 18 | 236 | 11.3 | 22.5 | 0.00 | 0.43 | 0.43 | 74 | 1019.4 |
| 20260905082552 | 18 | 236 | 14.5 | 27.4 | 0.00 | 0.43 | 0.43 | 75 | 1019.5 |
| 20260905081527 | 17 | 248 | 12.9 | 24.1 | 0.00 | 0.43 | 0.43 | 78 | 1019.4 |
| 20260905080521 | 16 | 244 | 9.7 | 17.7 | 0.00 | 0.43 | 0.43 | 80 | 1019.4 |
| 20260905075516 | 16 | 246 | 11.3 | 20.9 | 0.00 | 0.43 | 0.43 | 79 | 1019.4 |
| 20260905074531 | 16 | 245 | 12.9 | 25.7 | 0.00 | 0.43 | 0.43 | 81 | 1019.3 |
| 20260905073526 | 16 | 252 | 12.9 | 27.4 | 0.00 | 0.43 | 0.43 | 79 | 1019.2 |
| 20260905072520 | 16 | 248 | 8.0 | 17.7 | 0.00 | 0.43 | 0.43 | 79 | 1019.0 |
| 20260905071534 | 16 | 249 | 6.4 | 14.5 | 0.00 | 0.43 | 0.43 | 80 | 1018.8 |
| 20260905070529 | 15 | 243 | 4.8 | 12.9 | 0.00 | 0.43 | 0.43 | 81 | 1019.0 |
| 20260905065523 | 15 | 222 | 3.2 | 9.7 | 0.00 | 0.43 | 0.43 | 83 | 1018.9 |
| 20260905064517 | 15 | 151 | 1.6 | 4.8 | 0.00 | 0.43 | 0.43 | 82 | 1018.9 |
| 20260905063532 | 15 | 110 | 4.8 | 6.4 | 0.00 | 0.43 | 0.43 | 84 | 1018.8 |
| 20260905062527 | 13 | 121 | 6.4 | 11.3 | 0.00 | 0.43 | 0.43 | 87 | 1019.0 |
| 20260905061521 | 12 | 124 | 8.0 | 11.3 | 0.00 | 0.43 | 0.43 | 88 | 1018.8 |
| 20260905060516 | 12 | 117 | 9.7 | 14.5 | 0.00 | 0.43 | 0.43 | 88 | 1018.7 |
| 20260905055531 | 12 | 113 | 11.3 | 17.7 | 0.00 | 0.43 | 0.43 | 89 | 1018.5 |
| 20260905054526 | 12 | 109 | 11.3 | 17.7 | 0.00 | 0.43 | 0.43 | 89 | 1018.4 |
| 20260905053521 | 12 | 116 | 11.3 | 22.5 | 0.00 | 0.43 | 0.43 | 89 | 1018.1 |
| 20260905052535 | 12 | 83 | 6.4 | 14.5 | 0.00 | 0.43 | 0.43 | 88 | 1017.9 |
| 20260905051530 | 12 | 315 | 3.2 | 11.3 | 0.00 | 0.43 | 0.43 | 88 | 1017.7 |
| 20260905050524 | 12 | 253 | 4.8 | 9.7 | 0.05 | 0.43 | 0.43 | 87 | 1017.4 |
| 20260905045520 | 13 | 205 | 4.8 | 11.3 | 0.08 | 0.43 | 0.43 | 88 | 1017.2 |
| 20260905044534 | 13 | 234 | 8.0 | 12.9 | 0.13 | 0.43 | 0.43 | 88 | 1017.3 |
| 20260905043549 | 13 | 229 | 8.0 | 20.9 | 0.15 | 0.43 | 0.43 | 89 | 1017.2 |
| 20260905042524 | 14 | 221 | 11.3 | 20.9 | 0.18 | 0.43 | 0.43 | 89 | 1016.7 |
| 20260905041519 | 14 | 199 | 9.7 | 22.5 | 0.25 | 0.43 | 0.43 | 90 | 1016.3 |
| 20260905040533 | 14 | 181 | 6.4 | 17.7 | 0.25 | 0.41 | 0.41 | 89 | 1016.3 |
| 20260905035528 | 15 | 197 | 1.6 | 4.8 | 0.23 | 0.36 | 0.36 | 88 | 1016.9 |
| 20260905034523 | 15 | 230 | 3.2 | 6.4 | 0.18 | 0.30 | 0.30 | 88 | 1017.2 |
| 20260905033537 | 15 | 254 | 8.0 | 16.1 | 0.18 | 0.28 | 0.28 | 88 | 1017.3 |
| 20260905032533 | 15 | 237 | 6.4 | 12.9 | 0.20 | 0.25 | 0.25 | 88 | 1017.4 |
| 20260905031527 | 15 | 203 | 1.6 | 3.2 | 0.15 | 0.18 | 0.18 | 87 | 1017.0 |
| 20260905030521 | 15 | 227 | 1.6 | 4.8 | 0.13 | 0.15 | 0.15 | 86 | 1017.2 |
| 20260905025515 | 15 | 222 | 3.2 | 4.8 | 0.13 | 0.15 | 0.15 | 85 | 1017.0 |
| 20260905024550 | 15 | 216 | 3.2 | 4.8 | 0.13 | 0.13 | 0.13 | 83 | 1016.9 |
| 20260905023525 | 16 | 310 | 0.0 | 1.6 | 0.10 | 0.10 | 0.10 | 83 | 1016.5 |
| 20260905022520 | 15 | 296 | 4.8 | 9.7 | 0.05 | 0.05 | 0.05 | 85 | 1017.0 |
| 20260905021534 | 16 | 194 | 4.8 | 6.4 | 0.03 | 0.03 | 0.03 | 83 | 1016.0 |
| 20260905020529 | 16 | 160 | 1.6 | 4.8 | 0.03 | 0.03 | 0.03 | 81 | 1015.4 |
| 20260905015523 | 16 | 111 | 1.6 | 1.6 | 0.00 | 0.00 | 0.00 | 78 | 1015.3 |
| 20260905014518 | 17 | 156 | 1.6 | 3.2 | 0.00 | 0.00 | 0.00 | 73 | 1015.3 |
| 20260905013552 | 17 | 250 | 3.2 | 6.4 | 0.00 | 0.00 | 0.00 | 70 | 1015.4 |
| 20260905012526 | 18 | 277 | 4.8 | 11.3 | 0.00 | 0.00 | 0.00 | 66 | 1015.1 |
| 20260905011520 | 18 | 292 | 9.7 | 20.9 | 0.00 | 0.00 | 0.00 | 65 | 1015.0 |